Temp
-25 -24 -23 -22 -21 -21 -21 -22 -21 -21 -21 -20 -20 -19 -19 -19 -19 -19 -19 -18 -19 -19 -19 -19 -18 -18 -17 -17 -16 -16 -16 -16 -16 -16 -16 -16 -16 -16 -16 -16 -16 -15 -15 -15 -15 -15 -15 -15 -14 -14 -14 -14 -14 -15
-22 -22 -21 -22 -22 -21 -21 -21 -21 -21 -20 -20 -19 -19 -19 -20 -19 -19 -19 -18 -19 -19 -19 -18 -18 -17 -17 -17 -17 -17 -16 -16 -16 -16 -16 -16 -16 -16 -16 -15 -16 -15 -15 -15 -15 -15 -15 -14 -15 -15 -15 -15 -15 -15
-20 -20 -21 -20 -20 -20 -20 -21 -21 -21 -20 -20 -19 -20 -20 -19 -19 -19 -19 -19 -19 -19 -19 -18 -18 -17 -17 -17 -18 -17 -16 -16 -16 -16 -16 -16 -16 -16 -16 -15 -16 -15 -15 -15 -15 -15 -15 -15 -15 -15 -15 -15 -15 -16
-20 -20 -21 -20 -21 -21 -20 -21 -20 -20 -20 -20 -20 -20 -20 -19 -19 -19 -19 -19 -19 -19 -18 -18 -18 -17 -17 -17 -17 -17 -17 -17 -16 -16 -16 -16 -16 -16 -16 -16 -16 -16 -16 -16 -16 -16 -16 -15 -15 -15 -16 -16 -16 -17
-20 -20 -20 -20 -20 -21 -20 -20 -20 -21 -21 -20 -20 -19 -19 -19 -19 -19 -19 -19 -19 -19 -18 -18 -18 -17 -17 -17 -18 -17 -17 -17 -16 -16 -16 -16 -16 -16 -16 -16 -16 -16 -16 -16 -16 -16 -16 -16 -15 -16 -16 -17 -17 -17
-20 -20 -20 -20 -20 -20 -21 -21 -21 -20 -20 -20 -20 -20 -19 -19 -19 -19 -19 -19 -19 -19 -18 -18 -17 -17 -17 -17 -17 -17 -17 -17 -16 -16 -16 -16 -16 -16 -16 -16 -16 -16 -16 -16 -16 -16 -16 -17 -16 -17 -17 -17 -18 -18
-20 -20 -20 -20 -19 -20 -19 -20 -20 -20 -20 -20 -20 -19 -19 -19 -19 -19 -19 -19 -19 -18 -18 -18 -17 -17 -17 -17 -17 -17 -17 -17 -16 -16 -16 -16 -16 -16 -16 -16 -17 -16 -17 -16 -17 -17 -17 -18 -17 -18 -18 -18 -18 -18
-20 -20 -19 -19 -19 -19 -19 -19 -19 -20 -20 -20 -20 -20 -20 -20 -20 -20 -19 -19 -19 -18 -18 -18 -17 -17 -17 -17 -17 -17 -17 -17 -17 -17 -17 -17 -16 -16 -16 -17 -17 -17 -17 -17 -17 -18 -18 -18 -18 -18 -19 -19 -19 -19
-20 -20 -19 -19 -19 -19 -19 -19 -19 -20 -20 -20 -20 -20 -20 -20 -20 -19 -19 -18 -18 -18 -18 -18 -18 -18 -18 -17 -17 -17 -17 -17 -17 -17 -17 -17 -17 -17 -17 -18 -18 -18 -18 -18 -18 -18 -19 -19 -19 -19 -19 -19 -20 -20
-20 -20 -20 -19 -19 -19 -19 -19 -19 -19 -20 -20 -20 -19 -19 -20 -20 -19 -19 -19 -19 -19 -18 -18 -18 -18 -18 -18 -18 -18 -18 -18 -17 -18 -18 -17 -17 -18 -18 -19 -19 -19 -19 -18 -18 -19 -19 -19 -19 -19 -20 -20 -20 -20
-20 -20 -20 -19 -19 -19 -19 -19 -19 -20 -20 -20 -19 -20 -20 -20 -20 -20 -19 -19 -19 -19 -19 -19 -18 -18 -18 -18 -18 -18 -18 -18 -18 -18 -18 -17 -18 -19 -19 -19 -19 -19 -19 -19 -19 -19 -19 -20 -20 -20 -20 -21 -21 -21
-20 -20 -20 -19 -19 -19 -19 -20 -19 -20 -20 -19 -20 -20 -20 -20 -20 -20 -19 -19 -19 -19 -19 -19 -19 -19 -19 -19 -19 -19 -19 -19 -18 -18 -19 -18 -19 -19 -19 -19 -19 -19 -19 -19 -20 -20 -20 -20 -21 -21 -21 -21 -22 -22
-20 -20 -20 -20 -20 -20 -19 -19 -19 -19 -19 -19 -20 -20 -20 -20 -20 -20 -19 -19 -19 -20 -20 -20 -20 -20 -20 -20 -20 -20 -20 -19 -19 -19 -19 -19 -19 -19 -19 -19 -19 -20 -20 -20 -21 -21 -21 -21 -21 -21 -22 -23 -23 -24
-20 -20 -20 -20 -20 -20 -20 -20 -19 -20 -19 -19 -19 -20 -20 -20 -20 -20 -20 -20 -20 -20 -20 -20 -20 -20 -20 -20 -20 -20 -20 -20 -19 -19 -19 -19 -19 -19 -20 -20 -20 -21 -21 -21 -21 -21 -22 -22 -22 -23 -23 -23 -24 -24
-21 -21 -20 -20 -20 -20 -20 -20 -20 -19 -19 -19 -20 -19 -20 -20 -20 -20 -20 -20 -20 -20 -20 -20 -20 -20 -20 -20 -20 -20 -20 -19 -19 -19 -20 -20 -20 -21 -21 -21 -21 -21 -21 -21 -22 -22 -22 -23 -24 -24 -24 -24 -25 -25
-21 -21 -20 -20 -20 -20 -20 -20 -20 -20 -20 -20 -20 -20 -20 -20 -20 -20 -20 -20 -20 -20 -20 -20 -20 -20 -20 -20 -20 -20 -20 -20 -20 -20 -21 -21 -21 -21 -21 -21 -21 -22 -22 -22 -23 -23 -24 -24 -24 -24 -25 -25 -26 -26
-21 -21 -21 -21 -21 -20 -20 -20 -20 -20 -20 -20 -20 -20 -20 -20 -20 -20 -20 -20 -20 -20 -20 -20 -20 -21 -21 -21 -21 -21 -21 -21 -21 -21 -21 -21 -22 -22 -22 -22 -22 -23 -23 -24 -24 -24 -24 -25 -25 -25 -26 -26 -27 -28
-21 -21 -21 -21 -21 -21 -21 -21 -21 -20 -20 -20 -20 -20 -20 -20 -20 -20 -20 -20 -20 -21 -21 -21 -21 -21 -21 -21 -21 -21 -21 -21 -21 -22 -22 -22 -22 -22 -22 -23 -23 -24 -24 -24 -24 -25 -25 -25 -26 -26 -26 -27 -28 -29
-21 -21 -21 -21 -21 -21 -21 -21 -21 -21 -21 -21 -21 -21 -21 -21 -21 -21 -21 -21 -21 -21 -21 -21 -21 -21 -21 -21 -22 -22 -22 -22 -22 -22 -22 -23 -23 -23 -24 -24 -24 -25 -25 -25 -25 -25 -26 -26 -27 -27 -28 -29 -30 -30
-21 -21 -21 -21 -21 -21 -21 -21 -21 -21 -21 -21 -21 -21 -21 -21 -21 -21 -21 -21 -21 -21 -21 -21 -22 -22 -22 -22 -22 -22 -22 -23 -23 -23 -24 -24 -25 -25 -25 -25 -25 -25 -25 -26 -26 -26 -27 -27 -28 -29 -30 -30 -31 -31
-24 -23 -23 -22 -21 -21 -21 -21 -21 -21 -21 -21 -21 -21 -21 -21 -21 -21 -21 -21 -21 -21 -22 -22 -22 -22 -23 -23 -24 -24 -24 -25 -25 -25 -25 -25 -25 -25 -25 -25 -26 -26 -26 -27 -27 -28 -29 -29 -30 -30 -31 -31 -31 -31
-27 -26 -26 -26 -25 -24 -24 -23 -23 -22 -22 -22 -22 -22 -22 -22 -22 -23 -23 -23 -24 -24 -24 -24 -25 -25 -25 -25 -25 -25 -25 -25 -25 -25 -26 -26 -26 -26 -26 -26 -27 -27 -28 -28 -29 -30 -30 -31 -31 -31 -31 -31 -31 -31
-27 -27 -26 -26 -26 -26 -26 -26 -26 -26 -25 -25 -25 -25 -25 -25 -25 -25 -25 -25 -25 -25 -26 -26 -26 -26 -26 -26 -26 -26 -26 -26 -26 -26 -26 -26 -26 -27 -27 -28 -29 -29 -30 -31 -31 -31 -31 -31 -31 -31 -32 -32 -32 -32
-27 -27 -27 -27 -27 -27 -27 -26 -26 -26 -26 -26 -26 -26 -26 -26 -26 -26 -26 -26 -26 -26 -26 -26 -26 -26 -26 -26 -26 -26 -26 -26 -27 -27 -27 -28 -28 -29 -30 -30 -31 -31 -32 -32 -32 -32 -32 -32 -32 -32 -32 -32 -32 -32
-27 -27 -27 -27 -27 -27 -27 -27 -27 -27 -27 -27 -26 -26 -26 -26 -26 -26 -26 -26 -26 -26 -26 -26 -26 -26 -26 -26 -27 -27 -27 -28 -28 -29 -30 -30 -31 -32 -32 -32 -32 -32 -32 -32 -32 -32 -32 -32 -32 -32 -32 -33 -33 -33
-27 -27 -27 -27 -27 -27 -27 -27 -27 -27 -27 -27 -27 -27 -26 -26 -26 -26 -26 -26 -26 -26 -26 -26 -27 -27 -27 -28 -28 -29 -30 -31 -31 -32 -32 -32 -32 -32 -32 -32 -32 -32 -32 -32 -33 -33 -33 -33 -33 -33 -33 -33 -33 -34
-28 -28 -28 -28 -28 -28 -28 -27 -27 -27 -27 -27 -27 -27 -27 -27 -27 -27 -27 -27 -27 -28 -28 -29 -30 -31 -31 -32 -32 -32 -32 -32 -32 -32 -32 -32 -32 -32 -32 -32 -32 -33 -33 -33 -33 -33 -33 -33 -33 -34 -34 -34 -34 -34
-29 -29 -29 -29 -29 -30 -30 -30 -30 -30 -30 -30 -30 -30 -31 -31 -31 -31 -31 -31 -32 -32 -32 -32 -32 -32 -32 -32 -32 -32 -32 -32 -32 -33 -33 -33 -33 -33 -33 -33 -33 -34 -34 -34 -34 -34 -34 -34 -34 -34 -34 -35 -35 -35
-31 -31 -31 -31 -31 -31 -32 -32 -31 -32 -31 -31 -31 -31 -31 -31 -31 -31 -31 -32 -32 -32 -32 -32 -32 -32 -32 -32 -32 -32 -32 -33 -33 -33 -33 -33 -33 -34 -34 -34 -34 -34 -34 -34 -34 -34 -34 -35 -35 -35 -35 -35 -36 -36
-32 -32 -32 -32 -32 -32 -32 -32 -32 -32 -32 -32 -32 -32 -32 -32 -32 -32 -32 -32 -32 -32 -32 -32 -32 -33 -33 -33 -33 -33 -33 -33 -33 -34 -34 -34 -34 -34 -34 -34 -34 -34 -34 -34 -34 -35 -35 -35 -35 -35 -36 -36 -36 -36
-32 -32 -32 -32 -32 -32 -32 -32 -32 -32 -32 -32 -32 -32 -32 -32 -32 -32 -33 -33 -33 -33 -33 -33 -33 -33 -33 -33 -33 -33 -33 -34 -34 -34 -34 -34 -34 -34 -34 -34 -34 -34 -35 -35 -35 -35 -36 -36 -36 -36 -37 -37 -37 -37
-32 -32 -32 -33 -33 -33 -33 -33 -33 -33 -33 -33 -33 -33 -33 -33 -33 -33 -33 -33 -33 -33 -33 -33 -33 -33 -33 -33 -33 -33 -34 -34 -34 -34 -34 -34 -35 -35 -35 -35 -35 -35 -36 -36 -36 -36 -37 -37 -37 -38 -38 -38 -38 -38
-33 -33 -33 -33 -33 -33 -33 -33 -33 -33 -33 -33 -33 -33 -33 -33 -33 -33 -33 -33 -33 -33 -33 -33 -33 -33 -33 -34 -34 -34 -34 -34 -35 -35 -35 -35 -35 -36 -36 -36 -36 -36 -36 -37 -37 -37 -37 -38 -38 -38 -38 -38 -38 -38
Height
5312 5321 5331 5343 5355 5368 5381 5393 5409 5426 5446 5464 5483 5501 5517 5535 5551 5562 5574 5586 5598 5607 5618 5626 5634 5645 5654 5663 5671 5678 5683 5688 5693 5696 5698 5700 5702 5703 5704 5705 5706 5707 5708 5709 5708 5708 5708 5708 5707 5707 5705 5702 5699 5695
5335 5345 5356 5368 5379 5388 5400 5414 5429 5446 5463 5479 5495 5510 5525 5540 5552 5562 5576 5588 5598 5607 5617 5624 5634 5644 5652 5658 5666 5673 5677 5682 5687 5690 5694 5696 5698 5700 5701 5701 5702 5703 5704 5704 5704 5702 5700 5699 5698 5696 5694 5691 5688 5684
5363 5372 5381 5389 5400 5409 5422 5434 5448 5463 5477 5491 5506 5519 5533 5545 5557 5567 5577 5588 5597 5605 5613 5621 5630 5641 5650 5657 5664 5668 5673 5678 5682 5686 5689 5691 5693 5695 5695 5696 5696 5696 5697 5696 5697 5694 5691 5690 5687 5685 5682 5679 5675 5671
5388 5395 5403 5413 5423 5432 5442 5453 5465 5477 5489 5502 5516 5527 5538 5550 5560 5568 5577 5586 5595 5604 5611 5621 5629 5639 5647 5653 5659 5664 5670 5673 5677 5679 5682 5685 5687 5688 5689 5689 5689 5689 5689 5688 5688 5684 5683 5678 5678 5675 5671 5667 5664 5660
5410 5417 5425 5433 5441 5450 5459 5469 5480 5491 5503 5513 5524 5534 5544 5553 5562 5570 5580 5587 5594 5602 5610 5620 5628 5636 5643 5650 5655 5660 5664 5668 5671 5673 5676 5679 5680 5681 5681 5681 5681 5681 5680 5679 5677 5676 5673 5669 5666 5663 5660 5656 5653 5649
5431 5437 5444 5450 5458 5466 5474 5483 5492 5502 5511 5521 5530 5539 5547 5556 5566 5570 5578 5587 5595 5602 5610 5616 5626 5632 5639 5645 5650 5655 5659 5662 5665 5667 5669 5671 5672 5673 5672 5672 5673 5672 5671 5668 5666 5664 5661 5657 5655 5652 5649 5645 5641 5638
5449 5454 5460 5466 5472 5480 5487 5494 5502 5509 5517 5526 5534 5543 5550 5558 5565 5572 5579 5586 5593 5599 5607 5615 5621 5628 5634 5640 5645 5649 5653 5656 5658 5660 5662 5663 5664 5663 5663 5662 5663 5662 5660 5658 5655 5652 5648 5646 5642 5639 5636 5633 5630 5626
5465 5470 5475 5479 5485 5491 5497 5502 5509 5516 5524 5530 5537 5544 5551 5558 5566 5572 5579 5585 5593 5597 5605 5611 5616 5623 5629 5633 5638 5642 5645 5648 5650 5652 5653 5654 5654 5653 5652 5653 5652 5651 5649 5647 5644 5640 5637 5633 5631 5628 5624 5621 5617 5613
5476 5480 5485 5489 5493 5498 5505 5510 5515 5521 5527 5532 5539 5546 5553 5558 5565 5571 5578 5585 5590 5597 5601 5607 5613 5619 5623 5628 5632 5634 5637 5639 5641 5642 5644 5645 5644 5643 5644 5642 5641 5639 5637 5634 5632 5629 5626 5623 5620 5616 5612 5608 5604 5599
5486 5489 5495 5498 5502 5506 5511 5516 5520 5525 5530 5535 5541 5546 5553 5560 5566 5571 5576 5582 5587 5591 5597 5602 5608 5613 5618 5621 5624 5627 5629 5630 5632 5634 5634 5634 5634 5634 5633 5632 5630 5628 5625 5622 5620 5618 5615 5611 5607 5603 5599 5595 5591 5586
5493 5497 5501 5505 5508 5513 5517 5521 5525 5529 5534 5538 5543 5550 5556 5560 5566 5571 5575 5579 5583 5588 5593 5598 5603 5607 5611 5614 5616 5618 5619 5621 5622 5624 5624 5624 5625 5624 5623 5621 5619 5616 5613 5611 5609 5606 5603 5599 5596 5592 5588 5583 5578 5572
5498 5501 5504 5509 5513 5517 5522 5525 5529 5533 5538 5543 5547 5551 5555 5559 5565 5570 5574 5578 5582 5588 5593 5597 5600 5602 5604 5606 5608 5610 5610 5611 5611 5613 5614 5613 5617 5614 5612 5609 5606 5604 5603 5600 5598 5595 5592 5588 5583 5579 5574 5569 5564 5558
5501 5504 5507 5511 5515 5519 5524 5529 5532 5535 5539 5544 5548 5551 5556 5560 5564 5568 5572 5578 5582 5585 5588 5590 5593 5595 5597 5599 5600 5601 5601 5601 5603 5603 5602 5605 5604 5602 5599 5597 5595 5594 5592 5589 5586 5583 5578 5574 5570 5565 5560 5554 5549 5543
5504 5507 5510 5513 5517 5520 5524 5528 5533 5538 5542 5546 5549 5552 5555 5559 5563 5568 5572 5574 5577 5579 5582 5584 5586 5589 5590 5592 5592 5592 5593 5593 5592 5593 5594 5594 5591 5590 5588 5586 5585 5582 5580 5577 5573 5569 5564 5560 5555 5549 5545 5539 5534 5528
5505 5507 5509 5512 5516 5519 5523 5527 5531 5536 5540 5543 5547 5549 5553 5558 5561 5564 5567 5570 5572 5575 5577 5579 5581 5583 5583 5583 5584 5583 5582 5581 5582 5583 5583 5581 5579 5578 5576 5574 5572 5569 5567 5563 5559 5554 5549 5545 5540 5535 5530 5524 5518 5512
5505 5507 5509 5511 5515 5518 5522 5525 5530 5533 5536 5540 5542 5546 5550 5553 5556 5559 5561 5564 5566 5568 5570 5571 5572 5572 5573 5572 5572 5571 5571 5570 5572 5571 5570 5569 5568 5566 5564 5561 5558 5555 5552 5547 5543 5539 5535 5531 5527 5521 5515 5509 5502 5496
5503 5505 5508 5510 5513 5515 5519 5523 5525 5528 5531 5534 5537 5540 5544 5547 5551 5553 5554 5556 5558 5560 5561 5561 5561 5562 5561 5561 5561 5562 5562 5562 5561 5560 5559 5558 5556 5553 5551 5547 5544 5540 5537 5533 5530 5526 5522 5517 5511 5505 5499 5492 5486 5480
5500 5503 5506 5508 5511 5513 5516 5519 5521 5524 5527 5530 5533 5535 5538 5541 5543 5545 5546 5548 5549 5550 5551 5551 5552 5552 5552 5552 5552 5552 5552 5551 5550 5549 5547 5545 5542 5539 5536 5533 5530 5527 5524 5520 5517 5512 5507 5501 5496 5490 5483 5477 5470 5464
5495 5498 5502 5504 5507 5510 5512 5515 5517 5519 5521 5524 5526 5528 5530 5532 5534 5536 5538 5539 5540 5541 5542 5542 5543 5543 5543 5543 5542 5541 5541 5539 5538 5537 5534 5531 5528 5526 5523 5521 5518 5515 5511 5507 5502 5497 5492 5486 5480 5474 5468 5461 5455 5449
5489 5492 5494 5498 5501 5504 5507 5509 5512 5514 5516 5518 5520 5521 5523 5525 5526 5527 5529 5530 5531 5532 5532 5532 5532 5532 5532 5532 5530 5529 5527 5526 5524 5522 5520 5518 5516 5514 5512 5509 5505 5501 5497 5492 5487 5482 5476 5471 5465 5458 5452 5446 5440 5434
5484 5484 5487 5490 5493 5497 5499 5501 5503 5506 5508 5509 5511 5512 5513 5515 5516 5517 5518 5519 5519 5520 5519 5519 5519 5519 5518 5517 5516 5515 5514 5513 5512 5510 5509 5506 5503 5501 5497 5493 5489 5485 5481 5476 5470 5465 5459 5454 5448 5443 5437 5431 5425 5417
5484 5484 5485 5485 5487 5488 5490 5491 5494 5495 5498 5498 5500 5500 5502 5503 5504 5505 5506 5507 5506 5507 5507 5507 5507 5507 5506 5505 5504 5503 5502 5501 5500 5498 5495 5492 5489 5485 5482 5477 5473 5468 5464 5458 5453 5449 5444 5439 5433 5428 5422 5415 5408 5400
5484 5485 5485 5485 5486 5486 5488 5488 5490 5490 5491 5492 5492 5493 5494 5495 5496 5496 5497 5497 5497 5497 5498 5497 5497 5496 5495 5494 5493 5491 5489 5487 5485 5483 5479 5476 5472 5468 5464 5460 5456 5452 5447 5443 5438 5434 5429 5424 5419 5412 5406 5398 5391 5383
5481 5482 5482 5482 5482 5483 5484 5484 5485 5485 5486 5486 5487 5488 5488 5488 5489 5488 5488 5488 5488 5487 5487 5486 5485 5484 5482 5481 5479 5476 5474 5471 5468 5465 5462 5458 5455 5451 5448 5444 5440 5437 5433 5429 5424 5419 5414 5408 5402 5395 5389 5381 5373 5364
5477 5476 5476 5475 5476 5477 5477 5477 5477 5478 5478 5478 5479 5479 5479 5479 5478 5478 5478 5477 5475 5475 5474 5472 5471 5469 5468 5465 5463 5460 5457 5454 5451 5448 5445 5442 5439 5436 5434 5430 5427 5423 5418 5414 5409 5403 5398 5392 5385 5378 5370 5363 5354 5346
5468 5468 5468 5466 5466 5467 5467 5467 5467 5467 5467 5467 5467 5467 5466 5466 5465 5464 5464 5462 5461 5460 5459 5457 5455 5452 5450 5448 5445 5443 5440 5438 5436 5434 5432 5430 5427 5424 5421 5417 5414 5410 5403 5399 5394 5387 5381 5374 5367 5360 5352 5344 5337 5329
5460 5459 5458 5458 5457 5457 5457 5456 5456 5456 5455 5455 5454 5454 5453 5451 5450 5449 5447 5445 5445 5443 5442 5440 5438 5436 5435 5433 5432 5431 5429 5427 5425 5423 5420 5418 5414 5410 5407 5403 5398 5394 5389 5384 5378 5371 5364 5357 5349 5342 5335 5328 5321 5314
5451 5450 5450 5450 5449 5448 5448 5448 5447 5446 5446 5445 5444 5443 5442 5441 5441 5439 5438 5436 5435 5434 5433 5432 5430 5429 5427 5426 5424 5422 5419 5416 5414 5411 5407 5404 5400 5396 5391 5387 5382 5377 5372 5366 5360 5353 5346 5339 5332 5326 5319 5313 5307 5301
5446 5446 5446 5445 5445 5445 5444 5444 5443 5443 5442 5441 5440 5439 5438 5437 5436 5434 5433 5431 5430 5428 5427 5425 5423 5421 5418 5416 5413 5410 5407 5404 5400 5396 5392 5388 5384 5380 5375 5370 5365 5360 5354 5348 5342 5336 5329 5322 5316 5310 5304 5299 5293 5288
5444 5443 5443 5442 5442 5441 5440 5440 5439 5437 5436 5435 5434 5432 5431 5429 5428 5426 5424 5422 5420 5418 5416 5413 5411 5408 5405 5402 5399 5396 5392 5388 5384 5380 5376 5372 5367 5363 5358 5353 5348 5342 5336 5329 5323 5317 5311 5306 5300 5295 5290 5285 5280 5276
5440 5439 5438 5437 5436 5435 5433 5432 5430 5429 5427 5426 5424 5422 5421 5419 5417 5414 5412 5410 5408 5405 5403 5400 5397 5394 5391 5388 5385 5381 5377 5373 5369 5365 5360 5355 5350 5344 5339 5333 5327 5321 5315 5309 5304 5298 5293 5288 5284 5279 5275 5271 5266 5262
5434 5432 5431 5429 5427 5426 5424 5422 5420 5419 5417 5415 5413 5411 5409 5407 5405 5403 5400 5397 5395 5392 5389 5387 5384 5382 5379 5375 5371 5367 5363 5358 5353 5347 5341 5336 5330 5324 5318 5312 5306 5300 5295 5289 5284 5280 5276 5272 5268 5264 5261 5257 5253 5249
5427 5425 5423 5421 5419 5417 5415 5413 5411 5408 5405 5403 5401 5399 5396 5394 5392 5390 5388 5386 5384 5381 5379 5376 5373 5369 5365 5360 5355 5350 5345 5339 5333 5327 5321 5315 5308 5302 5297 5292 5286 5281 5276 5272 5268 5264 5260 5257 5253 5250 5247 5243 5240 5236
Wind_Speed
57 64 68 66 76 63 54 52 56 67 77 67 63 60 68 67 64 59 55 59 55 53 51 57 58 56 53 49 44 38 33 29 23 19 16 12 11 12 11 12 13 14 14 14 17 20 23 24 27 30 33 35 38 41
56 64 72 65 58 48 53 67 71 77 78 74 69 62 57 63 53 51 51 55 52 50 52 56 56 52 50 49 43 36 34 29 27 24 19 17 14 14 14 15 15 16 17 20 21 26 28 31 33 35 37 40 42 44
55 54 52 53 52 65 63 68 68 62 59 57 54 60 58 54 44 47 45 48 52 50 52 55 55 54 51 47 40 37 35 31 28 25 22 20 20 18 19 20 21 23 24 27 27 31 34 36 38 40 42 43 44 45
62 65 61 51 53 60 62 63 60 59 57 54 53 51 50 50 42 45 42 42 48 47 49 52 52 52 49 47 41 37 33 31 31 29 27 25 24 24 24 25 26 28 29 31 32 36 37 41 41 43 44 45 44 43
57 58 57 57 56 55 53 54 53 51 50 49 47 47 49 47 41 39 40 37 40 45 46 49 49 49 47 44 40 37 35 34 33 32 30 28 28 29 29 30 32 32 34 35 37 38 40 43 45 43 43 42 43 45
53 52 52 50 48 48 47 46 45 45 44 44 45 44 45 42 36 39 40 35 34 39 42 46 46 45 44 41 39 36 35 35 34 32 32 32 32 33 35 35 35 35 37 40 41 42 44 43 42 42 42 44 45 45
45 45 43 42 41 42 41 42 41 41 42 41 41 40 39 39 35 36 35 35 35 38 40 38 41 43 41 39 38 37 36 36 36 34 34 35 35 37 38 40 37 39 40 41 41 41 44 41 45 45 45 45 46 47
37 38 38 36 36 34 33 33 35 35 35 37 36 36 42 36 32 34 37 35 36 32 34 34 38 40 41 40 39 38 37 37 38 38 38 38 39 40 43 40 39 39 41 39 40 41 43 44 45 45 46 47 48 48
29 31 30 30 32 34 33 30 31 34 33 31 31 38 38 38 38 36 42 34 38 36 33 33 32 35 38 39 39 39 38 40 40 41 39 39 40 42 40 38 37 37 38 39 41 42 43 44 45 47 48 48 47 46
23 28 29 24 31 28 29 28 28 30 31 33 38 39 36 33 35 40 41 32 34 32 33 35 35 34 36 36 36 37 37 39 40 40 41 42 42 39 35 34 36 37 39 41 42 43 44 46 47 47 46 46 48 51
23 25 25 21 20 22 27 30 31 31 30 30 31 32 32 34 32 33 35 39 39 33 30 32 33 34 34 35 35 38 39 41 42 40 40 40 38 33 33 35 37 40 41 41 42 43 44 44 44 46 49 51 54 56
25 29 27 27 23 20 23 19 22 26 27 28 28 29 29 28 28 30 26 34 32 31 25 26 27 28 29 31 33 34 35 37 40 37 36 38 32 33 35 38 40 41 41 41 42 42 43 45 48 50 53 56 56 55
26 23 25 26 26 23 20 23 22 21 26 21 24 26 30 28 27 28 28 26 24 19 20 23 25 26 26 27 28 30 33 35 34 35 37 34 33 35 38 40 40 41 41 42 42 44 47 49 52 55 54 50 50 51
20 21 23 27 23 22 23 20 25 21 20 19 17 20 27 27 26 25 23 23 22 23 22 22 23 24 25 27 31 32 35 36 38 37 35 33 35 37 38 39 40 41 42 44 46 48 51 53 51 47 47 50 53 56
20 21 24 26 25 25 28 27 26 27 23 24 22 23 21 18 18 18 20 19 20 21 23 24 26 28 29 32 34 36 38 39 38 35 34 36 38 38 39 40 42 44 46 48 51 53 50 45 45 48 51 54 56 58
15 20 21 21 25 27 33 29 25 25 29 29 29 25 26 29 23 23 23 23 26 27 28 29 29 31 32 35 36 38 40 41 39 37 35 34 37 40 42 45 47 50 52 53 51 46 45 47 50 53 55 57 58 60
16 21 20 19 20 25 33 36 30 28 30 31 32 35 36 33 31 33 33 35 34 32 33 36 37 37 36 34 33 32 31 32 34 34 38 41 44 46 48 51 52 52 50 45 44 46 49 52 54 56 58 59 60 60
20 20 20 21 20 17 20 23 27 32 29 27 26 29 30 30 31 31 32 31 30 29 28 27 27 29 31 32 31 32 33 35 38 41 44 47 50 51 52 50 48 44 44 45 48 50 53 55 57 59 60 61 60 59
28 28 26 24 22 20 19 22 20 21 21 23 23 22 23 23 24 26 28 29 29 29 29 30 31 32 33 34 36 38 40 43 46 49 50 49 48 46 44 43 44 45 47 49 52 55 57 59 59 60 60 59 58 58
32 34 35 32 30 29 28 28 28 28 28 29 28 28 27 28 29 30 31 32 33 33 34 35 37 38 40 41 44 46 47 46 45 43 42 41 41 42 43 45 47 49 52 54 56 58 59 59 59 58 57 57 57 59
7 11 20 29 37 40 40 42 39 40 41 42 45 44 42 41 40 40 40 40 40 41 41 41 42 42 42 41 39 38 37 37 37 38 39 41 43 45 47 50 52 54 56 57 58 57 57 57 57 56 56 57 59 62
4 5 5 6 8 11 17 23 25 27 29 30 31 31 31 32 33 33 34 34 33 31 31 31 30 31 30 31 32 34 37 39 40 42 44 46 49 51 54 55 56 56 57 56 55 54 54 53 53 55 58 60 63 67
8 8 8 9 9 11 10 11 13 15 17 18 20 21 23 24 25 26 26 27 27 28 28 29 31 32 34 36 38 40 41 43 46 49 51 54 55 55 55 55 54 52 51 50 49 50 51 54 57 59 61 65 68 72
15 16 16 15 14 14 14 15 16 17 18 20 21 22 24 25 26 27 29 30 31 32 33 35 37 39 41 44 46 49 51 53 54 55 55 54 53 52 50 47 46 45 46 49 51 54 56 58 61 64 66 69 71 73
17 17 20 23 24 25 25 25 25 26 27 28 29 30 31 32 34 35 36 38 39 41 43 44 46 49 51 52 54 55 54 54 52 51 48 45 43 42 42 45 47 49 52 53 53 56 58 62 64 66 69 69 69 68
25 23 22 22 24 26 28 29 29 30 31 33 34 36 37 38 40 42 43 45 47 48 50 51 53 54 54 54 51 48 44 41 39 37 38 40 42 43 46 49 50 50 51 53 56 58 61 64 66 67 67 66 64 63
25 24 23 23 23 24 25 27 29 30 31 33 34 36 38 39 41 41 42 43 43 42 41 40 37 33 29 27 27 28 29 32 35 38 39 42 46 47 48 49 50 52 54 56 58 61 64 66 66 65 62 61 59 57
20 19 17 17 16 16 13 13 12 12 13 13 15 15 15 16 16 15 15 15 15 15 16 18 20 22 24 27 29 31 34 36 38 40 42 45 47 49 51 52 54 55 56 59 63 65 66 64 61 58 57 55 52 48
7 7 7 7 6 6 7 8 10 11 12 13 14 15 17 17 19 20 21 22 23 24 26 28 30 31 33 35 36 38 40 42 45 47 49 50 51 51 53 54 55 58 61 64 66 64 61 58 56 55 53 50 47 43
7 7 9 10 12 14 15 17 19 20 21 22 23 25 26 27 27 28 30 31 32 33 35 36 37 38 40 41 43 45 46 47 48 49 50 51 52 53 55 59 62 64 66 66 64 61 58 56 54 52 49 47 44 42
14 16 18 19 20 22 23 25 26 28 29 29 30 31 32 32 34 35 35 36 36 37 38 39 39 40 41 41 41 42 43 44 46 49 52 55 59 62 65 66 66 67 66 64 62 59 57 54 50 48 46 44 43 42
22 22 23 23 24 25 26 26 27 28 29 30 31 32 33 34 35 36 37 38 38 37 36 35 34 34 35 39 42 46 49 53 56 59 61 63 65 66 66 66 65 63 60 57 54 52 49 46 45 44 43 43 42 41
20 22 23 24 25 25 27 28 30 32 32 32 32 33 33 33 32 30 29 28 28 29 31 34 37 41 45 49 52 55 57 59 61 62 62 62 60 58 56 54 52 51 50 49 48 46 45 44 44 44 45 45 44 43
Wind_Direction
122 122 117 127 136 139 135 139 146 157 170 164 164 166 173 169 174 183 182 185 188 193 194 191 191 190 190 189 186 187 192 199 204 208 210 215 217 224 226 229 232 240 250 256 264 270 273 276 280 282 289 291 291 291
118 129 136 136 142 139 136 135 143 153 163 162 161 161 163 167 173 179 179 184 190 192 192 193 192 191 191 188 193 192 198 202 209 214 215 224 230 237 242 245 255 260 267 270 274 278 282 286 291 292 291 292 292 293
129 136 139 134 129 128 136 145 148 149 150 151 154 161 166 166 171 175 177 185 190 192 194 195 193 193 195 192 196 203 204 209 216 222 229 233 240 248 251 258 263 270 274 276 279 282 285 287 289 292 293 294 294 293
114 123 120 123 131 136 140 140 144 146 150 154 159 160 161 164 168 177 181 186 190 194 197 195 197 199 200 202 203 208 212 218 223 229 235 241 248 254 260 264 267 273 276 279 280 281 286 287 290 292 292 292 292 292
125 126 126 126 128 130 132 137 141 146 150 154 156 159 162 169 168 181 183 188 189 194 197 199 201 204 208 210 212 215 220 226 230 235 241 246 253 258 262 266 270 273 276 278 280 283 284 285 289 289 288 288 289 290
116 120 121 121 124 128 132 137 142 146 149 153 159 162 164 164 174 179 181 185 189 197 199 200 204 209 213 216 217 220 225 230 236 241 246 251 256 261 264 268 272 274 277 281 283 285 286 285 287 286 287 288 291 293
119 121 122 125 130 135 141 144 148 151 154 157 159 163 167 172 180 180 176 179 186 196 198 201 206 211 217 222 225 227 230 236 241 246 251 256 259 263 267 269 274 277 280 281 283 284 285 284 287 288 290 292 294 295
123 129 134 132 134 136 139 145 151 153 158 161 163 165 165 170 174 177 177 180 190 196 198 202 208 212 217 222 225 230 234 240 245 249 252 257 260 264 268 274 278 279 280 281 281 281 283 286 288 291 293 294 295 296
124 132 128 129 131 134 143 150 156 158 159 169 174 166 163 175 177 177 173 177 195 203 206 204 209 214 220 223 229 233 237 242 247 250 252 256 262 267 273 275 277 278 280 280 280 282 285 288 290 291 293 295 295 296
133 138 135 142 134 128 143 146 156 162 167 172 165 168 168 172 181 184 190 180 189 198 206 210 214 220 222 224 229 235 241 244 247 252 257 262 267 270 274 274 275 277 277 279 282 286 288 290 292 293 293 293 294 297
144 144 147 153 165 144 143 149 153 156 160 166 171 171 169 179 183 189 201 210 209 217 222 218 219 220 223 227 233 239 243 249 253 255 258 263 268 272 273 274 276 276 278 282 284 287 289 289 289 290 292 294 297 299
149 152 150 153 142 151 160 163 160 159 165 171 177 184 190 196 198 198 194 199 204 207 212 216 221 225 229 232 237 242 246 250 255 259 262 265 269 273 274 274 273 275 280 283 284 285 285 287 290 292 294 296 297 298
172 173 171 167 167 171 175 165 172 173 171 166 178 181 190 194 196 207 212 216 223 223 221 222 226 231 235 237 241 245 249 254 259 263 267 271 275 274 271 271 275 279 282 282 283 286 289 290 291 293 295 297 301 304
179 190 183 179 186 192 194 196 182 178 189 194 193 193 198 205 209 211 214 215 214 214 217 224 229 234 238 241 245 251 259 263 266 268 272 275 272 274 275 277 280 281 282 284 286 288 289 291 293 296 299 302 304 306
181 195 201 198 201 202 199 206 207 196 205 208 201 202 202 202 204 209 216 222 223 224 231 236 241 247 251 255 257 260 262 264 267 272 274 274 275 275 277 279 281 283 285 287 289 291 292 293 296 299 301 304 306 307
194 212 217 223 218 216 211 210 212 208 212 221 220 219 218 229 230 233 232 232 234 236 246 256 258 260 262 263 265 265 266 269 272 272 273 275 275 278 281 283 285 286 288 289 290 291 293 296 298 301 304 305 306 307
212 201 204 209 214 219 218 215 227 222 221 225 229 233 231 236 235 242 245 240 238 247 256 259 259 258 260 258 260 264 266 267 270 270 269 273 277 280 282 284 285 286 287 288 289 291 294 298 301 302 303 304 304 303
224 206 201 199 197 199 197 207 215 221 226 227 231 230 230 233 238 242 244 248 251 252 255 255 254 254 256 259 262 264 265 266 268 271 274 277 279 279 281 282 283 284 285 288 291 295 298 299 300 301 301 301 301 300
229 231 226 221 216 207 211 221 219 222 230 231 233 234 236 238 240 241 241 243 248 253 256 258 260 263 266 267 268 270 270 270 271 272 273 275 277 278 279 280 282 285 288 292 294 296 297 297 298 299 299 299 298 298
228 234 233 230 231 229 227 230 232 240 243 242 243 241 244 249 253 256 258 260 262 263 265 266 265 265 264 265 266 268 268 270 271 272 273 274 275 276 279 282 286 288 290 292 293 294 295 295 296 297 297 297 297 299
234 219 221 227 229 229 231 231 236 242 245 243 243 243 244 247 249 251 255 256 257 259 261 264 266 267 267 267 267 268 269 270 271 272 274 277 279 282 284 287 288 290 290 291 292 293 294 295 295 296 296 297 300 302
291 290 293 288 267 253 244 244 248 249 246 246 246 247 252 256 260 262 264 264 265 265 265 266 266 266 266 267 267 268 270 272 275 277 279 281 283 284 285 287 288 289 290 290 291 292 294 295 297 298 300 301 303 303
264 261 262 258 256 261 258 260 260 262 261 262 263 262 261 260 260 262 262 263 264 265 266 266 267 268 270 271 272 274 276 278 279 280 281 281 283 284 286 287 287 288 289 291 292 293 295 297 299 299 300 302 304 305
278 266 262 259 258 256 253 254 254 254 254 254 255 256 257 259 260 260 262 264 265 266 267 268 269 271 273 274 275 275 276 277 279 280 281 282 284 285 285 285 285 286 289 291 293 294 295 297 299 301 303 304 306 307
307 291 277 268 263 262 262 262 262 261 262 262 263 262 263 263 264 265 265 266 267 269 269 270 271 272 272 273 274 275 277 279 280 281 282 282 282 281 282 284 286 288 288 289 291 294 298 300 302 304 305 306 307 308
299 296 286 278 272 268 267 266 266 266 267 268 268 268 268 268 269 269 269 269 269 269 270 270 271 272 273 274 276 277 278 278 277 278 280 284 285 286 286 285 286 287 291 294 297 299 301 303 304 305 306 307 308 309
296 291 287 280 274 271 270 268 268 267 268 267 268 268 268 268 269 271 271 271 272 272 272 272 274 275 274 275 276 277 279 280 282 283 285 287 286 286 287 289 292 294 295 296 298 301 303 304 305 306 306 307 308 309
292 286 279 279 270 271 265 267 273 279 278 277 279 278 279 283 286 286 290 292 294 294 293 292 290 288 285 283 282 282 282 283 283 283 283 285 288 289 290 291 292 294 295 298 301 303 305 305 305 305 306 307 307 308
267 271 276 261 265 284 289 288 291 294 294 292 290 288 289 291 291 289 287 286 286 287 288 288 288 289 288 287 286 285 285 286 287 287 288 289 289 289 290 292 293 295 298 300 302 303 304 304 304 305 305 305 306 305
287 293 293 292 290 288 286 286 288 289 289 289 290 291 290 289 289 288 287 286 286 286 286 287 287 287 287 287 287 287 287 288 288 288 289 289 290 291 292 293 295 297 299 301 302 302 302 302 303 302 303 303 302 300
290 290 290 290 289 288 288 288 288 288 287 287 287 286 286 287 286 286 286 286 286 287 288 288 288 288 288 288 288 289 290 290 290 290 290 291 292 293 294 295 296 297 298 298 298 298 298 299 299 299 301 302 302 300
294 292 292 292 292 292 291 291 291 289 288 287 286 286 286 285 285 285 286 286 286 286 286 287 287 288 289 290 290 291 291 292 292 292 292 293 293 294 295 296 297 297 297 297 297 297 296 295 295 297 300 303 303 302
300 296 294 292 292 291 289 289 290 290 287 285 285 285 285 286 287 288 287 286 286 286 287 288 290 291 292 293 293 293 293 293 294 294 295 295 296 297 298 299 300 300 300 300 299 298 296 294 294 295 297 299 300 299